Location: Albuquerque Trailhead
(34.7934°N, 106.3736°W)
Time: 00:25:40
(UTC+00:00)

Lacrosse 5 rocket - Pass Details

Date: 20 June 2021
Orbit: 460 x 634 km, 57.0° (Epoch: 01 August)

Event Time Altitude Azimuth Distance (km) Brightness Sun altitude
Rises 11:09:46 0° 325° (NW) 2,507 4.7 -8.2°
Reaches altitude 10° 11:11:55 10° 330° (NNW) 1,643 3.8 -7.8°
Maximum altitude 11:15:31 51° 48° (NE) 616 2.1 -7.2°
Drops below altitude 10° 11:19:16 10° 125° (SE) 1,711 4.1 -6.6°
Sets 11:21:32 0° 131° (SE) 2,624 5.0 -6.2°
